EW0591 Weather Reports


Display with metric or nautical units.
time (UTC)temp
F
wind
direction
speed
MPH
gust
MPH
rain 1hr
in
rain 24hr
in
rain mn
in
humidity
%
barometer
mb
20260902115128 54 290 0.0 0.0 0.00 0.00 0.00 93 1016.4
20260902114624 54 226 0.0 0.0 0.00 0.00 0.00 93 1015.9
20260902114123 54 234 0.0 0.0 0.00 0.00 0.00 93 1016.0
20260902113614 54 234 0.0 0.0 0.00 0.00 0.00 93 1016.0
20260902113108 54 259 0.0 0.0 0.00 0.00 0.00 93 1016.2
20260902112603 54 233 0.0 0.0 0.00 0.00 0.00 93 1016.4
20260902112100 54 227 0.0 0.0 0.00 0.00 0.00 93 1016.8
20260902111556 53 218 0.0 0.0 0.00 0.00 0.00 93 1016.9
20260902111051 54 254 0.0 0.0 0.00 0.00 0.00 93 1016.8
20260902110548 54 191 0.0 0.0 0.00 0.00 0.00 93 1016.8
20260902110043 55 289 0.0 0.0 0.00 0.00 0.00 92 1017.3
20260902105537 55 219 0.0 0.0 0.00 0.00 0.00 92 1017.7
20260902105032 55 235 0.0 0.0 0.00 0.00 0.00 92 1017.8
20260902104528 55 225 0.0 0.0 0.00 0.00 0.00 92 1018.0
20260902104027 55 214 0.0 0.0 0.00 0.00 0.00 92 1018.3
20260902103523 55 199 1.0 1.0 0.00 0.00 0.00 92 1018.5
20260902103018 55 174 2.0 2.0 0.00 0.00 0.00 92 1018.7
20260902102515 56 233 1.0 1.0 0.00 0.00 0.00 91 1018.9
20260902102011 56 189 3.0 3.0 0.00 0.00 0.00 91 1018.8
20260902101506 56 137 5.0 6.0 0.00 0.00 0.00 91 1018.9
20260902101005 56 200 1.0 1.0 0.00 0.00 0.00 91 1018.7
20260902100500 56 176 1.0 1.0 0.00 0.00 0.00 91 1018.6
20260902100000 56 120 1.0 2.0 0.00 0.00 0.00 91 1018.9
20260902095454 56 179 1.0 2.0 0.00 0.00 0.00 92 1018.7
20260902094954 56 192 0.0 0.0 0.00 0.00 0.00 92 1018.8
20260902094449 56 197 0.0 0.0 0.00 0.00 0.00 92 1018.8
20260902093944 56 165 0.0 1.0 0.00 0.00 0.00 92 1018.6
20260902093439 55 180 3.0 3.0 0.00 0.00 0.00 92 1018.8
20260902092938 55 193 2.0 2.0 0.00 0.00 0.00 92 1018.7
20260902092434 55 190 3.0 3.0 0.00 0.00 0.00 91 1018.7
20260902091934 56 199 3.0 3.0 0.00 0.00 0.00 91 1018.7
20260902091429 56 184 3.0 3.0 0.00 0.00 0.00 90 1018.6
20260902090926 57 207 1.0 2.0 0.00 0.00 0.00 89 1018.8
20260902090426 57 147 3.0 3.0 0.00 0.00 0.00 89 1018.9
20260902085924 57 256 1.0 2.0 0.00 0.00 0.00 90 1018.7
20260902085420 57 181 3.0 3.0 0.00 0.00 0.00 91 1018.7
20260902084915 57 193 1.0 2.0 0.00 0.00 0.00 91 1018.6
20260902084411 57 155 4.0 5.0 0.00 0.00 0.00 92 1018.9
20260902083906 57 199 2.0 2.0 0.00 0.00 0.00 92 1018.6
20260902083401 57 159 1.0 2.0 0.00 0.00 0.00 92 1018.7
20260902082856 57 217 0.0 0.0 0.00 0.00 0.00 93 1018.6
20260902082352 57 197 0.0 1.0 0.00 0.00 0.00 93 1018.8
20260902081848 57 208 1.0 1.0 0.00 0.00 0.00 93 1018.6
20260902081344 56 183 3.0 3.0 0.00 0.00 0.00 93 1018.7
20260902080838 56 205 3.0 3.0 0.00 0.00 0.00 93 1018.8
20260902080335 56 212 0.0 1.0 0.00 0.00 0.00 93 1018.7
20260902075834 56 202 1.0 1.0 0.00 0.00 0.00 92 1018.7
20260902075331 56 209 0.0 0.0 0.00 0.00 0.00 92 1018.9
20260902074825 57 187 1.0 2.0 0.00 0.00 0.00 92 1018.8
20260902074316 57 243 0.0 0.0 0.00 0.00 0.00 92 1018.9
20260902073816 57 259 0.0 0.0 0.00 0.00 0.00 92 1018.9
20260902073312 57 233 0.0 0.0 0.00 0.00 0.00 92 1018.9
20260902072808 57 196 1.0 2.0 0.00 0.00 0.00 92 1019.1
20260902072309 57 212 1.0 1.0 0.00 0.00 0.00 92 1019.0
20260902071800 57 191 1.0 1.0 0.00 0.00 0.00 92 1019.4
20260902071254 57 216 0.0 0.0 0.00 0.00 0.00 91 1019.4
20260902070751 57 179 4.0 5.0 0.00 0.00 0.00 92 1019.5
20260902070250 57 220 0.0 0.0 0.00 0.00 0.00 92 1019.2
20260902065749 57 62 0.0 1.0 0.00 0.00 0.00 91 1019.6
20260902065244 57 181 2.0 2.0 0.00 0.00 0.00 91 1019.5
20260902064740 57 200 0.0 1.0 0.00 0.00 0.00 91 1019.6
20260902064236 57 240 0.0 0.0 0.00 0.00 0.00 91 1019.8
20260902063731 58 226 0.0 0.0 0.00 0.00 0.00 91 1020.1
20260902063226 58 226 0.0 0.0 0.00 0.00 0.00 91 1020.0
20260902062725 58 202 2.0 2.0 0.00 0.00 0.00 91 1020.4
20260902062221 58 179 4.0 5.0 0.00 0.00 0.00 91 1020.6
20260902061719 58 179 3.0 5.0 0.00 0.00 0.00 91 1020.6
20260902061215 58 199 3.0 3.0 0.00 0.00 0.00 90 1020.8
20260902060712 58 171 3.0 3.0 0.00 0.00 0.00 90 1020.8
20260902060207 58 154 7.0 8.0 0.00 0.00 0.00 90 1020.9
20260902055703 58 152 7.0 8.0 0.00 0.06 0.06 90 1020.7
20260902055159 58 177 5.0 5.0 0.00 0.06 0.06 91 1020.6
20260902054654 58 140 6.0 9.0 0.00 0.06 0.06 91 1020.5
20260902054150 58 175 5.0 7.0 0.00 0.06 0.06 90 1020.4
20260902053645 58 165 6.0 7.0 0.00 0.06 0.06 90 1020.2
20260902053145 58 158 7.0 8.0 0.00 0.06 0.06 90 1019.9
20260902052644 58 114 4.0 6.0 0.00 0.06 0.06 91 1019.9
20260902052140 58 196 3.0 5.0 0.00 0.06 0.06 90 1019.6
20260902051639 58 206 5.0 6.0 0.00 0.06 0.06 90 1019.6
20260902051133 59 220 3.0 3.0 0.00 0.06 0.06 90 1019.4
20260902050628 59 189 2.0 2.0 0.00 0.06 0.06 90 1019.5
20260902050123 58 189 1.0 1.0 0.00 0.06 0.06 90 1019.6
20260902045618 59 205 0.0 1.0 0.00 0.06 0.06 90 1019.6
20260902045115 59 237 0.0 0.0 0.00 0.06 0.06 89 1019.8
20260902044614 59 263 2.0 2.0 0.00 0.06 0.06 89 1019.6
20260902044110 58 277 4.0 5.0 0.00 0.06 0.06 90 1019.8
20260902043605 59 225 0.0 0.0 0.00 0.06 0.06 89 1020.0
20260902043100 59 40 1.0 2.0 0.00 0.06 0.06 89 1020.6
20260902042600 59 239 0.0 0.0 0.00 0.06 0.06 89 1020.8
20260902042056 59 233 0.0 0.0 0.00 0.06 0.06 89 1021.0
20260902041555 59 147 3.0 3.0 0.00 0.06 0.06 89 1021.1
20260902041050 59 221 1.0 1.0 0.00 0.06 0.06 89 1021.6
20260902040549 59 203 3.0 3.0 0.00 0.06 0.06 89 1021.5
20260902040045 59 214 2.0 2.0 0.00 0.06 0.06 89 1021.6
20260902035543 59 194 1.0 2.0 0.00 0.06 0.06 90 1021.3
20260902035038 59 243 0.0 1.0 0.00 0.06 0.06 89 1021.5
20260902034538 59 250 0.0 0.0 0.00 0.06 0.06 89 1021.3
20260902034037 59 230 0.0 0.0 0.00 0.06 0.06 88 1021.6
20260902033536 59 219 2.0 3.0 0.07 0.06 0.06 88 1021.6
20260902033032 59 196 3.0 3.0 0.07 0.06 0.06 88 1021.8
20260902032530 59 150 0.0 1.0 0.00 0.05 0.05 87 1021.5
20260902032025 59 244 0.0 0.0 0.00 0.05 0.05 86 1021.7
20260902031520 60 248 0.0 0.0 0.00 0.05 0.05 85 1021.7
20260902031016 60 212 1.0 1.0 0.00 0.05 0.05 85 1021.7
20260902030511 60 217 1.0 1.0 0.05 0.05 0.05 84 1021.7
20260902030011 60 198 4.0 5.0 0.05 0.05 0.05 84 1021.7
20260902025505 60 150 6.0 7.0 0.00 0.04 0.04 83 1021.2
20260902025000 60 229 3.0 3.0 0.00 0.04 0.04 83 1021.6
20260902024456 60 172 1.0 1.0 0.07 0.04 0.04 82 1021.5
20260902023950 61 164 3.0 3.0 0.12 0.04 0.04 81 1021.3
20260902023446 62 172 5.0 7.0 0.12 0.03 0.03 79 1021.3
20260902022945 62 171 5.0 6.0 0.07 0.02 0.02 77 1021.0
20260902022441 63 176 5.0 8.0 0.00 0.01 0.01 75 1020.8
20260902021936 64 145 4.0 5.0 0.00 0.01 0.01 72 1020.9
20260902021431 64 4 1.0 1.0 0.07 0.01 0.01 72 1020.8
20260902020926 67 50 0.0 1.0 0.07 0.01 0.01 66 1020.6
20260902020423 67 254 3.0 3.0 0.00 0.00 0.00 61 1020.2
20260902015918 68 257 1.0 3.0 0.00 0.00 0.00 57 1020.4
20260902015414 68 230 7.0 8.0 0.00 0.00 0.00 58 1020.2
20260902014909 68 200 5.0 7.0 0.00 0.00 0.00 57 1020.0
20260902014406 68 185 7.0 8.0 0.00 0.00 0.00 58 1020.0
20260902013904 69 170 7.0 9.0 0.00 0.00 0.00 59 1019.9
20260902013400 69 214 6.0 7.0 0.00 0.00 0.00 57 1019.6
20260902012855 68 157 10.0 11.0 0.00 0.00 0.00 58 1019.9
20260902012351 69 185 12.0 14.0 0.00 0.00 0.00 58 1019.9
20260902011846 69 133 8.0 8.0 0.00 0.00 0.00 56 1019.6
20260902011340 69 143 3.0 3.0 0.00 0.00 0.00 55 1019.0
20260902010835 69 179 7.0 9.0 0.00 0.00 0.00 55 1018.6
20260902010330 68 129 4.0 5.0 0.00 0.00 0.00 56 1017.9
20260902005829 67 206 3.0 3.0 0.00 0.00 0.00 60 1017.6
20260902005323 68 277 7.0 7.0 0.00 0.00 0.00 60 1017.8
20260902004819 67 326 11.0 14.0 0.00 0.00 0.00 62 1017.6
20260902004314 69 263 13.0 15.0 0.00 0.00 0.00 60 1017.5
20260902003808 70 279 7.0 8.0 0.00 0.00 0.00 55 1017.4
20260902003304 69 232 13.0 15.0 0.00 0.00 0.00 54 1017.7
20260902002759 72 244 10.0 14.0 0.00 0.00 0.00 49 1017.3
20260902002259 73 223 12.0 15.0 0.00 0.00 0.00 48 1017.8
20260902001754 72 188 15.0 17.0 0.00 0.00 0.00 46 1017.4
20260902001250 71 176 21.0 23.0 0.00 0.00 0.00 53 1017.3
20260902000749 72 198 11.0 13.0 0.00 0.00 0.00 52 1017.4
20260902000244 74 168 10.0 11.0 0.00 0.00 0.00 48 1016.9
20260901235739 79 139 5.0 8.0 0.00 0.00 0.00 40 1016.5
20260901235234 81 129 11.0 14.0 0.00 0.00 0.00 29 1015.8
20260901234733 82 152 12.0 14.0 0.00 0.00 0.00 31 1015.4
20260901234233 81 166 18.0 24.0 0.00 0.00 0.00 30 1015.3
20260901233728 81 237 0.0 1.0 0.00 0.00 0.00 31 1015.2
20260901233225 81 300 0.0 1.0 0.00 0.00 0.00 33 1015.4
20260901232724 84 191 0.0 1.0 0.00 0.00 0.00 30 1014.9
20260901232220 84 346 4.0 6.0 0.00 0.00 0.00 28 1014.4
20260901231716 85 337 5.0 6.0 0.00 0.00 0.00 27 1014.3
20260901231212 85 335 5.0 7.0 0.00 0.00 0.00 27 1014.2
20260901230708 85 321 7.0 9.0 0.00 0.00 0.00 26 1014.2
20260901230207 86 288 0.0 0.0 0.00 0.00 0.00 29 1014.3
20260901225702 86 244 1.0 1.0 0.00 0.00 0.00 28 1013.9
20260901225157 85 258 1.0 1.0 0.00 0.00 0.00 26 1014.2
20260901224653 85 272 3.0 3.0 0.00 0.00 0.00 28 1014.3
20260901224149 85 289 4.0 5.0 0.00 0.00 0.00 29 1014.3
20260901223644 85 280 2.0 2.0 0.00 0.00 0.00 31 1014.2
20260901223139 85 261 3.0 3.0 0.00 0.00 0.00 31 1014.3
20260901222636 86 252 2.0 2.0 0.00 0.00 0.00 31 1014.4
20260901222132 86 248 1.0 1.0 0.00 0.00 0.00 31 1014.1
20260901221627 87 257 2.0 2.0 0.00 0.00 0.00 29 1014.2
20260901221123 87 260 0.0 0.0 0.00 0.00 0.00 29 1014.3
20260901220622 87 351 2.0 2.0 0.00 0.00 0.00 28 1014.3
20260901220121 87 272 2.0 2.0 0.00 0.00 0.00 29 1014.3
20260901215619 87 292 3.0 3.0 0.00 0.00 0.00 29 1014.5
20260901215114 87 275 4.0 5.0 0.00 0.00 0.00 30 1014.6
20260901214613 87 248 3.0 3.0 0.00 0.00 0.00 30 1014.7
20260901214107 87 259 3.0 3.0 0.00 0.00 0.00 30 1014.6
20260901213601 86 210 3.0 3.0 0.00 0.00 0.00 30 1014.8
20260901213056 86 207 2.0 3.0 0.00 0.00 0.00 32 1014.8
20260901212555 86 235 1.0 2.0 0.00 0.00 0.00 30 1015.1
20260901212052 85 188 2.0 2.0 0.00 0.00 0.00 30 1015.1
20260901211547 85 226 2.0 2.0 0.00 0.00 0.00 30 1015.4
20260901211043 86 156 2.0 2.0 0.00 0.00 0.00 29 1015.5
20260901210538 85 220 2.0 2.0 0.00 0.00 0.00 29 1015.6
20260901210035 85 236 2.0 2.0 0.00 0.00 0.00 30 1015.8
20260901205529 84 177 4.0 5.0 0.00 0.00 0.00 30 1015.7
20260901205024 84 167 2.0 2.0 0.00 0.00 0.00 30 1016.3
20260901204521 84 243 0.0 0.0 0.00 0.00 0.00 31 1016.2
20260901204015 83 252 1.0 2.0 0.00 0.00 0.00 31 1015.9
20260901203510 82 174 3.0 5.0 0.00 0.00 0.00 34 1016.3
20260901203004 83 178 6.0 7.0 0.00 0.00 0.00 32 1016.6
20260901202500 81 214 3.0 3.0 0.00 0.00 0.00 34 1016.7
20260901201955 81 239 4.0 5.0 0.00 0.00 0.00 31 1016.7
20260901201450 82 208 4.0 5.0 0.00 0.00 0.00 30 1016.8
20260901200944 82 223 4.0 6.0 0.00 0.00 0.00 33 1016.9
20260901200439 81 188 1.0 2.0 0.00 0.00 0.00 33 1017.2
20260901195938 79 262 1.0 2.0 0.00 0.00 0.00 34 1017.2
20260901195437 79 251 2.0 2.0 0.00 0.00 0.00 34 1017.0
20260901194932 79 243 2.0 2.0 0.00 0.00 0.00 33 1017.5
20260901194427 77 326 0.0 0.0 0.00 0.00 0.00 37 1017.5
20260901193923 77 139 3.0 3.0 0.00 0.00 0.00 35 1017.5
20260901193422 78 179 3.0 5.0 0.00 0.00 0.00 33 1017.5
20260901192921 78 243 0.0 0.0 0.00 0.00 0.00 32 1017.7
20260901192418 77 240 2.0 2.0 0.00 0.00 0.00 33 1017.8
20260901191914 78 146 1.0 2.0 0.00 0.00 0.00 34 1017.7
20260901191409 77 57 2.0 2.0 0.00 0.00 0.00 35 1018.1
20260901190905 77 194 2.0 2.0 0.00 0.00 0.00 35 1018.3
20260901190405 76 282 0.0 0.0 0.00 0.00 0.00 36 1018.4
20260901185903 77 184 2.0 3.0 0.00 0.00 0.00 36 1018.3
20260901185402 76 224 0.0 1.0 0.00 0.00 0.00 36 1018.5
20260901184857 75 225 1.0 1.0 0.00 0.00 0.00 39 1018.6
20260901184353 74 244 2.0 3.0 0.00 0.00 0.00 38 1018.9
20260901183848 73 233 0.0 1.0 0.00 0.00 0.00 41 1019.1
20260901183347 73 273 0.0 0.0 0.00 0.00 0.00 41 1019.1
20260901182843 74 27 3.0 3.0 0.00 0.00 0.00 41 1019.1
20260901182343 72 295 1.0 2.0 0.00 0.00 0.00 42 1019.5
20260901181838 71 36 2.0 2.0 0.00 0.00 0.00 41 1019.6
20260901181333 71 303 3.0 3.0 0.00 0.00 0.00 41 1019.5
20260901180832 71 353 3.0 3.0 0.00 0.00 0.00 41 1019.6
20260901180331 70 298 2.0 2.0 0.00 0.00 0.00 42 1019.6
20260901175825 70 282 3.0 3.0 0.00 0.00 0.00 42 1019.7
20260901175319 70 262 1.0 1.0 0.00 0.00 0.00 44 1019.9
20260901174814 68 96 1.0 1.0 0.00 0.00 0.00 46 1020.0
20260901174310 67 358 3.0 3.0 0.00 0.00 0.00 46 1020.0
20260901173806 67 333 3.0 3.0 0.00 0.00 0.00 46 1020.2
20260901173301 67 35 0.0 0.0 0.00 0.00 0.00 50 1020.2
20260901172757 66 239 0.0 0.0 0.00 0.00 0.00 49 1020.5
20260901172256 66 83 0.0 2.0 0.00 0.00 0.00 48 1020.0
20260901171754 66 295 2.0 2.0 0.00 0.00 0.00 47 1020.4
20260901171253 65 293 1.0 2.0 0.00 0.00 0.00 50 1020.4
20260901170752 64 246 0.0 0.0 0.00 0.00 0.00 49 1020.5
20260901170247 64 89 2.0 2.0 0.00 0.00 0.00 50 1020.7
20260901165746 64 204 0.0 0.0 0.00 0.00 0.00 52 1020.5
20260901165240 64 273 0.0 0.0 0.00 0.00 0.00 54 1020.9
20260901164737 62 265 0.0 1.0 0.00 0.00 0.00 52 1020.8
20260901164233 62 312 2.0 2.0 0.00 0.00 0.00 54 1021.1
20260901163728 62 256 0.0 0.0 0.00 0.00 0.00 58 1021.0
20260901163227 60 219 1.0 1.0 0.00 0.00 0.00 58 1021.0
20260901162722 62 261 2.0 2.0 0.00 0.00 0.00 59 1021.0
20260901162221 60 272 0.0 0.0 0.00 0.00 0.00 60 1021.0
20260901161720 59 243 0.0 0.0 0.00 0.00 0.00 62 1021.3
20260901161215 58 254 1.0 1.0 0.00 0.00 0.00 62 1021.3
20260901160712 58 238 1.0 1.0 0.00 0.00 0.00 64 1021.2
20260901160207 58 226 0.0 0.0 0.00 0.00 0.00 66 1021.3
20260901155705 57 213 0.0 0.0 0.00 0.00 0.00 67 1021.7
20260901155201 56 262 0.0 0.0 0.00 0.00 0.00 70 1021.7
20260901154656 56 276 1.0 1.0 0.00 0.00 0.00 70 1021.8
20260901154151 53 238 0.0 0.0 0.00 0.00 0.00 77 1021.6
20260901153646 51 244 0.0 0.0 0.00 0.00 0.00 90 1021.6
20260901153146 51 257 0.0 0.0 0.00 0.00 0.00 93 1021.7
20260901152640 49 268 0.0 0.0 0.00 0.00 0.00 94 1021.7
20260901152139 48 287 1.0 1.0 0.00 0.00 0.00 95 1021.6
20260901151635 47 281 0.0 1.0 0.00 0.00 0.00 95 1021.7
20260901151134 48 262 0.0 0.0 0.00 0.00 0.00 95 1022.0
20260901150633 47 237 0.0 0.0 0.00 0.00 0.00 95 1021.9
20260901150132 47 226 0.0 0.0 0.00 0.00 0.00 95 1022.2
20260901145630 47 253 0.0 0.0 0.00 0.00 0.00 95 1022.2
20260901145130 47 261 0.0 0.0 0.00 0.00 0.00 95 1022.1
20260901144625 46 251 0.0 0.0 0.00 0.00 0.00 95 1022.0
20260901144121 46 258 0.0 0.0 0.00 0.00 0.00 95 1022.0
20260901143616 45 256 0.0 0.0 0.00 0.00 0.00 95 1022.1
20260901143112 44 253 0.0 0.0 0.00 0.00 0.00 95 1022.1
20260901142608 43 267 0.0 0.0 0.00 0.00 0.00 95 1022.0
20260901142107 42 260 0.0 0.0 0.00 0.00 0.00 95 1022.1
20260901141602 42 288 0.0 0.0 0.00 0.00 0.00 95 1022.0
20260901141056 42 289 0.0 0.0 0.00 0.00 0.00 95 1022.1
20260901140550 41 280 0.0 0.0 0.00 0.00 0.00 95 1022.0
20260901140050 40 276 0.0 0.0 0.00 0.00 0.00 94 1021.7
20260901135549 40 266 0.0 0.0 0.00 0.00 0.00 94 1021.9
20260901135044 40 260 0.0 0.0 0.00 0.00 0.00 94 1021.7
20260901134540 39 265 0.0 0.0 0.00 0.00 0.00 94 1021.7
20260901134035 39 251 0.0 0.0 0.00 0.00 0.00 94 1021.9
20260901133534 39 249 0.0 0.0 0.00 0.00 0.00 94 1021.6
20260901133033 39 247 0.0 0.0 0.00 0.00 0.00 94 1021.9
20260901132533 40 231 0.0 0.0 0.00 0.00 0.00 94 1021.9
20260901132027 40 245 0.0 0.0 0.00 0.00 0.00 94 1021.8
20260901131526 40 244 0.0 0.0 0.00 0.00 0.00 94 1021.6
20260901131017 41 257 0.0 0.0 0.00 0.00 0.00 94 1021.6
20260901130516 39 231 0.0 0.0 0.00 0.00 0.00 94 1021.5
20260901130015 39 230 0.0 0.0 0.00 0.00 0.00 94 1021.5
20260901125514 39 230 0.0 0.0 0.00 0.00 0.00 94 1021.7
20260901125009 39 230 0.0 0.0 0.00 0.00 0.00 94 1021.6
20260901124505 39 229 0.0 0.0 0.00 0.00 0.00 94 1021.6
20260901123958 39 231 0.0 0.0 0.00 0.00 0.00 94 1021.5
20260901123454 40 238 0.0 0.0 0.00 0.00 0.00 94 1021.3
20260901122951 39 258 0.0 0.0 0.00 0.00 0.00 94 1021.3
20260901122451 39 257 0.0 0.0 0.00 0.00 0.00 94 1021.2
20260901121951 39 258 0.0 0.0 0.00 0.00 0.00 94 1021.1
20260901121446 39 266 0.0 0.0 0.00 0.00 0.00 94 1021.1
20260901120940 40 278 0.0 0.0 0.00 0.00 0.00 94 1021.3
20260901120435 40 235 0.0 0.0 0.00 0.00 0.00 94 1021.3
20260901115931 40 230 0.0 0.0 0.00 0.00 0.00 94 1021.3
20260901115430 41 220 0.0 0.0 0.00 0.00 0.00 94 1021.6